Time,TemperatureF,DewpointF,PressureIn,WindDirection,WindDirectionDegrees,WindSpeedMPH,WindSpeedGustMPH,Humidity,HourlyPrecipIn,Conditions,Clouds,dailyrainin,SolarRadiationWatts/m^2,SoftwareType,DateUTC
2013-07-02 00:02:00,61.0,58.0,30.08,ENE,61,0.0,4.0,90,0.00,,,0.00,0.000000,,2013-07-02 04:02:00,
2013-07-02 00:11:00,61.0,58.0,30.07,ENE,65,0.0,5.0,90,0.00,,,0.00,0.000000,,2013-07-02 04:11:00,
2013-07-02 00:22:00,61.0,58.0,30.07,NNE,19,2.0,5.0,90,0.00,,,0.00,0.000000,,2013-07-02 04:22:00,
2013-07-02 00:32:00,61.0,58.0,30.07,NNE,19,2.0,5.0,90,0.00,,,0.00,0.000000,,2013-07-02 04:32:00,
2013-07-02 00:42:00,61.0,58.0,30.07,NNE,19,2.0,5.0,90,0.00,,,0.00,0.000000,,2013-07-02 04:42:00,
2013-07-02 00:53:00,61.0,58.0,30.07,NNE,19,2.0,5.0,90,0.00,,,0.00,0.000000,,2013-07-02 04:53:00,
2013-07-02 01:02:00,61.0,58.0,30.06,ESE,110,2.0,10.0,91,0.00,,,0.00,0.000000,,2013-07-02 05:02:00,
2013-07-02 01:11:00,60.0,57.0,30.06,NE,52,0.0,9.0,91,0.00,,,0.00,0.000000,,2013-07-02 05:11:00,
2013-07-02 01:22:00,60.0,57.0,30.07,ENE,64,3.0,10.0,91,0.00,,,0.00,0.000000,,2013-07-02 05:22:00,
2013-07-02 01:32:00,60.0,57.0,30.07,ESE,116,0.0,10.0,90,0.00,,,0.00,0.000000,,2013-07-02 05:32:00,
2013-07-02 01:43:00,60.0,57.0,30.07,East,80,1.0,11.0,89,0.00,,,0.00,0.000000,,2013-07-02 05:43:00,
2013-07-02 01:53:00,60.0,57.0,30.08,East,83,0.0,9.0,90,0.00,,,0.00,0.000000,,2013-07-02 05:53:00,
2013-07-02 02:01:00,60.0,57.0,30.08,ENE,57,0.0,5.0,91,0.00,,,0.00,0.000000,,2013-07-02 06:01:00,
2013-07-02 02:12:00,60.0,57.0,30.07,ENE,67,1.0,7.0,91,0.00,,,0.00,0.000000,,2013-07-02 06:12:00,
2013-07-02 02:23:00,60.0,57.0,30.07,ESE,108,0.0,5.0,91,0.00,,,0.00,0.000000,,2013-07-02 06:23:00,
2013-07-02 02:34:00,60.0,58.0,30.06,NNW,338,0.0,9.0,92,0.00,,,0.00,0.000000,,2013-07-02 06:34:00,
2013-07-02 02:43:00,60.0,58.0,30.06,ENE,63,1.0,6.0,92,0.00,,,0.00,0.000000,,2013-07-02 06:43:00,
2013-07-02 02:53:00,60.0,58.0,30.06,ENE,67,0.0,2.0,93,0.00,,,0.00,0.000000,,2013-07-02 06:53:00,
2013-07-02 03:01:00,59.0,57.0,30.06,East,95,0.0,9.0,93,0.00,,,0.00,0.000000,,2013-07-02 07:01:00,
2013-07-02 03:12:00,59.0,57.0,30.06,NE,54,0.0,6.0,93,0.00,,,0.00,0.000000,,2013-07-02 07:12:00,
2013-07-02 03:22:00,59.0,57.0,30.06,East,82,0.0,4.0,93,0.00,,,0.00,0.000000,,2013-07-02 07:22:00,
2013-07-02 03:34:00,59.0,57.0,30.05,NE,49,0.0,5.0,93,0.00,,,0.00,0.000000,,2013-07-02 07:34:00,
2013-07-02 03:44:00,59.0,57.0,30.05,NE,48,1.0,6.0,92,0.00,,,0.00,0.000000,,2013-07-02 07:44:00,
2013-07-02 03:53:00,59.0,57.0,30.05,ENE,58,0.0,4.0,93,0.00,,,0.00,0.000000,,2013-07-02 07:53:00,
2013-07-02 04:02:00,59.0,57.0,30.04,NE,46,0.0,1.0,93,0.00,,,0.00,0.000000,,2013-07-02 08:02:00,
2013-07-02 04:12:00,59.0,57.0,30.03,NE,52,0.0,4.0,93,0.00,,,0.00,0.000000,,2013-07-02 08:12:00,
2013-07-02 04:22:00,59.0,57.0,30.04,NE,44,0.0,0.0,93,0.00,,,0.00,0.000000,,2013-07-02 08:22:00,
2013-07-02 04:33:00,59.0,57.0,30.04,East,86,0.0,2.0,93,0.00,,,0.00,0.000000,,2013-07-02 08:33:00,
2013-07-02 04:44:00,59.0,57.0,30.03,ENE,57,0.0,1.0,93,0.00,,,0.00,0.000000,,2013-07-02 08:44:00,
2013-07-02 04:53:00,59.0,57.0,30.04,ENE,59,0.0,0.0,93,0.00,,,0.00,0.000000,,2013-07-02 08:53:00,
2013-07-02 05:11:00,59.0,57.0,30.03,ENE,64,0.0,2.0,92,0.00,,,0.00,0.000000,,2013-07-02 09:11:00,
2013-07-02 05:43:00,60.0,58.0,30.03,NE,50,0.0,5.0,92,0.00,,,0.00,0.000000,,2013-07-02 09:43:00,
2013-07-02 05:52:00,60.0,58.0,30.04,NW,317,0.0,1.0,92,0.00,,,0.00,0.000000,,2013-07-02 09:52:00,
2013-07-02 06:01:00,60.0,58.0,30.04,NE,49,0.0,4.0,92,0.00,,,0.00,0.000000,,2013-07-02 10:01:00,
2013-07-02 06:11:00,60.0,58.0,30.04,ENE,64,0.0,5.0,92,0.00,,,0.00,0.000000,,2013-07-02 10:11:00,
2013-07-02 06:22:00,60.0,58.0,30.04,ENE,69,0.0,0.0,92,0.00,,,0.00,5.000000,,2013-07-02 10:22:00,
2013-07-02 06:33:00,60.0,58.0,30.05,ENE,69,0.0,0.0,92,0.00,,,0.00,7.000000,,2013-07-02 10:33:00,
2013-07-02 06:44:00,60.0,58.0,30.05,ENE,69,0.0,1.0,92,0.00,,,0.00,18.000000,,2013-07-02 10:44:00,
2013-07-02 06:52:00,60.0,58.0,30.06,ENE,69,0.0,0.0,92,0.00,,,0.00,12.000000,,2013-07-02 10:52:00,
2013-07-02 07:01:00,60.0,58.0,30.06,ENE,69,0.0,0.0,93,0.00,,,0.00,14.000000,,2013-07-02 11:01:00,
2013-07-02 07:11:00,60.0,58.0,30.06,ENE,69,0.0,0.0,93,0.00,,,0.00,16.000000,,2013-07-02 11:11:00,
2013-07-02 07:33:00,60.0,58.0,30.05,ENE,69,0.0,0.0,93,0.00,,,0.00,54.000000,,2013-07-02 11:33:00,
2013-07-02 07:42:00,60.0,58.0,30.06,ENE,69,0.0,0.0,93,0.00,,,0.00,46.000000,,2013-07-02 11:42:00,
2013-07-02 07:52:00,61.0,59.0,30.06,ENE,69,0.0,0.0,93,0.00,,,0.00,67.000000,,2013-07-02 11:52:00,
2013-07-02 08:01:00,61.0,59.0,30.06,ENE,69,0.0,0.0,92,0.00,,,0.00,95.000000,,2013-07-02 12:01:00,
2013-07-02 08:11:00,61.0,59.0,30.06,ENE,69,0.0,0.0,92,0.00,,,0.00,67.000000,,2013-07-02 12:11:00,
2013-07-02 08:23:00,61.0,59.0,30.06,ENE,69,0.0,0.0,92,0.00,,,0.00,98.000000,,2013-07-02 12:23:00,
2013-07-02 08:33:00,62.0,59.0,30.06,ENE,69,0.0,0.0,91,0.00,,,0.00,102.000000,,2013-07-02 12:33:00,
2013-07-02 08:43:00,62.0,59.0,30.06,ENE,69,0.0,0.0,90,0.00,,,0.00,97.000000,,2013-07-02 12:43:00,
2013-07-02 08:52:00,62.0,59.0,30.06,ENE,69,0.0,1.0,90,0.00,,,0.00,98.000000,,2013-07-02 12:52:00,
2013-07-02 09:34:00,63.0,59.0,30.06,NE,55,0.0,5.0,88,0.00,,,0.00,134.000000,,2013-07-02 13:34:00,
2013-07-02 09:43:00,63.0,59.0,30.06,ENE,71,1.0,6.0,88,0.00,,,0.00,172.000000,,2013-07-02 13:43:00,
2013-07-02 09:52:00,63.0,59.0,30.06,NE,53,0.0,5.0,88,0.00,,,0.00,200.000000,,2013-07-02 13:52:00,
2013-07-02 10:02:00,64.0,60.0,30.06,NE,53,0.0,5.0,88,0.00,,,0.00,287.000000,,2013-07-02 14:02:00,
2013-07-02 10:11:00,64.0,60.0,30.06,ENE,58,0.0,6.0,88,0.00,,,0.00,278.000000,,2013-07-02 14:11:00,
2013-07-02 10:22:00,64.0,60.0,30.06,NE,53,0.0,6.0,88,0.00,,,0.00,265.000000,,2013-07-02 14:22:00,
2013-07-02 10:33:00,65.0,62.0,30.06,ENE,63,0.0,4.0,89,0.00,,,0.00,366.000000,,2013-07-02 14:33:00,
2013-07-02 10:43:00,65.0,61.0,30.05,ENE,57,0.0,2.0,88,0.00,,,0.00,292.000000,,2013-07-02 14:43:00,
2013-07-02 10:53:00,65.0,61.0,30.06,NE,52,0.0,2.0,87,0.00,,,0.00,230.000000,,2013-07-02 14:53:00,
2013-07-02 11:02:00,65.0,61.0,30.06,ENE,63,0.0,4.0,88,0.00,,,0.00,292.000000,,2013-07-02 15:02:00,
2013-07-02 11:12:00,66.0,62.0,30.06,ENE,58,0.0,2.0,88,0.00,,,0.00,236.000000,,2013-07-02 15:12:00,
2013-07-02 11:22:00,66.0,63.0,30.06,NE,55,0.0,1.0,89,0.00,,,0.00,243.000000,,2013-07-02 15:22:00,
2013-07-02 11:33:00,66.0,63.0,30.05,NE,51,0.0,1.0,89,0.00,,,0.00,283.000000,,2013-07-02 15:33:00,
2013-07-02 11:44:00,66.0,62.0,30.06,East,83,1.0,6.0,88,0.00,,,0.00,313.000000,,2013-07-02 15:44:00,
2013-07-02 11:53:00,66.0,63.0,30.05,ENE,57,0.0,6.0,89,0.00,,,0.00,366.000000,,2013-07-02 15:53:00,
2013-07-02 12:01:00,66.0,63.0,30.05,NE,49,0.0,3.0,90,0.00,,,0.00,353.000000,,2013-07-02 16:01:00,
2013-07-02 12:33:00,66.0,63.0,30.05,ENE,73,2.0,6.0,89,0.00,,,0.00,274.000000,,2013-07-02 16:33:00,
2013-07-02 12:43:00,67.0,64.0,30.05,NE,38,0.0,2.0,89,0.00,,,0.00,239.000000,,2013-07-02 16:43:00,
2013-07-02 13:02:00,67.0,64.0,30.06,NE,50,0.0,2.0,90,0.00,,,0.00,301.000000,,2013-07-02 17:02:00,
2013-07-02 13:43:00,66.0,64.0,30.07,NE,47,0.0,3.0,92,0.00,,,0.00,251.000000,,2013-07-02 17:43:00,
2013-07-02 13:53:00,66.0,64.0,30.06,ENE,59,0.0,1.0,92,0.00,,,0.00,255.000000,,2013-07-02 17:53:00,
2013-07-02 14:02:00,67.0,65.0,30.06,NE,50,0.0,4.0,92,0.00,,,0.00,262.000000,,2013-07-02 18:02:00,
2013-07-02 14:43:00,67.0,65.0,30.06,NNE,31,0.0,2.0,93,0.00,,,0.00,350.000000,,2013-07-02 18:43:00,
2013-07-02 14:53:00,67.0,65.0,30.06,NE,55,0.0,2.0,92,0.00,,,0.00,429.000000,,2013-07-02 18:53:00,
2013-07-02 15:12:00,68.0,65.0,30.05,NNE,17,1.0,4.0,91,0.00,,,0.00,283.000000,,2013-07-02 19:12:00,
2013-07-02 15:22:00,68.0,65.0,30.05,NE,55,0.0,1.0,91,0.00,,,0.00,431.000000,,2013-07-02 19:22:00,
2013-07-02 15:34:00,68.0,65.0,30.05,NE,46,0.0,5.0,90,0.00,,,0.00,353.000000,,2013-07-02 19:34:00,
2013-07-02 15:43:00,68.0,65.0,30.05,NE,38,0.0,4.0,91,0.00,,,0.00,327.000000,,2013-07-02 19:43:00,
2013-07-02 15:53:00,69.0,66.0,30.05,NE,46,0.0,2.0,89,0.00,,,0.00,276.000000,,2013-07-02 19:53:00,
2013-07-02 16:22:00,69.0,66.0,30.05,ENE,65,2.0,6.0,89,0.00,,,0.00,257.000000,,2013-07-02 20:22:00,
2013-07-02 16:33:00,68.0,65.0,30.05,NE,43,0.0,1.0,90,0.00,,,0.00,392.000000,,2013-07-02 20:33:00,
2013-07-02 16:43:00,69.0,66.0,30.04,NNE,25,0.0,1.0,90,0.00,,,0.00,311.000000,,2013-07-02 20:43:00,
2013-07-02 16:52:00,69.0,66.0,30.04,NNE,24,0.0,1.0,89,0.00,,,0.00,299.000000,,2013-07-02 20:52:00,
2013-07-02 17:03:00,69.0,66.0,30.04,NE,48,0.0,1.0,90,0.00,,,0.00,522.000000,,2013-07-02 21:03:00,
2013-07-02 17:11:00,69.0,65.0,30.05,NE,40,0.0,1.0,88,0.00,,,0.00,330.000000,,2013-07-02 21:11:00,
2013-07-02 17:22:00,70.0,66.0,30.05,NE,49,0.0,2.0,87,0.00,,,0.00,269.000000,,2013-07-02 21:22:00,
2013-07-02 17:33:00,70.0,66.0,30.05,NE,47,0.0,1.0,88,0.00,,,0.00,320.000000,,2013-07-02 21:33:00,
2013-07-02 17:44:00,70.0,66.0,30.05,NE,56,2.0,6.0,87,0.00,,,0.00,269.000000,,2013-07-02 21:44:00,
2013-07-02 17:52:00,70.0,66.0,30.05,NE,49,0.0,4.0,87,0.00,,,0.00,290.000000,,2013-07-02 21:52:00,
2013-07-02 18:01:00,70.0,66.0,30.06,NE,55,0.0,1.0,88,0.00,,,0.00,464.000000,,2013-07-02 22:01:00,
2013-07-02 18:11:00,70.0,66.0,30.05,NE,43,0.0,1.0,87,0.00,,,0.00,438.000000,,2013-07-02 22:11:00,
2013-07-02 18:22:00,70.0,66.0,30.05,ENE,61,0.0,1.0,87,0.00,,,0.00,497.000000,,2013-07-02 22:22:00,
2013-07-02 18:34:00,70.0,66.0,30.05,ENE,59,0.0,1.0,86,0.00,,,0.00,441.000000,,2013-07-02 22:34:00,
2013-07-02 18:43:00,71.0,66.0,30.05,ENE,67,0.0,3.0,85,0.00,,,0.00,392.000000,,2013-07-02 22:43:00,
2013-07-02 18:53:00,71.0,67.0,30.05,North,350,0.0,1.0,86,0.00,,,0.00,348.000000,,2013-07-02 22:53:00,
2013-07-02 19:01:00,71.0,66.0,30.05,NNE,24,0.0,0.0,85,0.00,,,0.00,311.000000,,2013-07-02 23:01:00,
2013-07-02 19:12:00,71.0,66.0,30.05,NNE,23,0.0,0.0,85,0.00,,,0.00,279.000000,,2013-07-02 23:12:00,
2013-07-02 19:22:00,72.0,67.0,30.06,NNE,32,0.0,1.0,85,0.00,,,0.00,246.000000,,2013-07-02 23:22:00,
2013-07-02 19:33:00,71.0,66.0,30.06,NNE,26,0.0,0.0,85,0.00,,,0.00,225.000000,,2013-07-02 23:33:00,
2013-07-02 19:44:00,71.0,66.0,30.06,NE,51,0.0,1.0,85,0.00,,,0.00,188.000000,,2013-07-02 23:44:00,
2013-07-02 19:52:00,71.0,67.0,30.07,NE,55,0.0,1.0,86,0.00,,,0.00,130.000000,,2013-07-02 23:52:00,
2013-07-02 20:01:00,71.0,67.0,30.07,NE,54,0.0,0.0,86,0.00,,,0.00,120.000000,,2013-07-03 00:01:00,
2013-07-02 20:22:00,71.0,67.0,30.09,ESE,107,0.0,3.0,87,0.00,,,0.00,100.000000,,2013-07-03 00:22:00,
2013-07-02 20:33:00,70.0,66.0,30.08,ESE,107,0.0,1.0,87,0.00,,,0.00,56.000000,,2013-07-03 00:33:00,
2013-07-02 20:44:00,70.0,66.0,30.08,ESE,107,0.0,0.0,87,0.00,,,0.00,47.000000,,2013-07-03 00:44:00,
2013-07-02 20:52:00,70.0,66.0,30.08,ENE,76,0.0,2.0,88,0.00,,,0.00,32.000000,,2013-07-03 00:52:00,
2013-07-02 21:01:00,70.0,66.0,30.08,ENE,76,0.0,2.0,88,0.00,,,0.00,32.000000,,2013-07-03 01:01:00,
2013-07-02 21:22:00,69.0,66.0,30.08,East,89,0.0,0.0,89,0.00,,,0.00,11.000000,,2013-07-03 01:22:00,
2013-07-02 21:33:00,69.0,66.0,30.09,East,89,0.0,0.0,89,0.00,,,0.00,5.000000,,2013-07-03 01:33:00,
2013-07-02 21:42:00,68.0,65.0,30.07,East,89,0.0,0.0,90,0.00,,,0.00,0.000000,,2013-07-03 01:42:00,
2013-07-02 22:06:00,67.0,64.0,30.07,East,89,0.0,0.0,91,0.00,,,0.00,0.000000,,2013-07-03 02:06:00,
2013-07-02 22:15:00,67.0,64.0,30.07,East,89,0.0,0.0,91,0.00,,,0.00,0.000000,,2013-07-03 02:15:00,
2013-07-02 22:28:00,67.0,64.0,30.07,East,89,0.0,0.0,91,0.00,,,0.00,0.000000,,2013-07-03 02:28:00,
2013-07-02 22:39:00,66.0,64.0,30.09,East,89,0.0,0.0,94,0.00,,,0.00,0.000000,,2013-07-03 02:39:00,
2013-07-02 23:00:00,66.0,65.0,30.09,East,89,0.0,0.0,95,0.00,,,0.00,0.000000,,2013-07-03 03:00:00,
2013-07-02 23:07:00,66.0,65.0,30.08,East,89,0.0,0.0,95,0.00,,,0.00,0.000000,,2013-07-03 03:07:00,
2013-07-02 23:25:00,66.0,65.0,30.08,East,89,0.0,0.0,95,0.00,,,0.00,0.000000,,2013-07-03 03:25:00,
2013-07-02 23:36:00,66.0,65.0,30.08,East,89,0.0,0.0,95,0.00,,,0.00,0.000000,,2013-07-03 03:36:00,
2013-07-02 23:48:00,66.0,65.0,30.08,East,89,0.0,0.0,96,0.00,,,0.00,0.000000,,2013-07-03 03:48:00,
2013-07-02 23:57:00,66.0,65.0,30.07,East,89,0.0,0.0,96,0.00,,,0.00,0.000000,,2013-07-03 03:57:00,